Location: De Greiden
(52.9496°N, 5.9137°E)
Time: 01:18:45
(UTC+00:00)

Cosmos 1354 Rocket - Pass Details

Date: 24 January 2021
Orbit: 764 x 783 km, 74.0° (Epoch: 26 February)

Event Time Altitude Azimuth Distance (km) Brightness Sun altitude
Rises 16:40:39 0° 207° (SSW) 3,257 8.2 -5.4°
Reaches altitude 10° 16:43:01 10° 208° (SSW) 2,335 7.4 -5.7°
Maximum altitude 16:48:21 81° 296° (WNW) 800 4.2 -6.5°
Drops below altitude 10° 16:53:43 10° 25° (NNE) 2,352 6.1 -7.2°
Enters shadow 16:56:06 - 26° (NNE) 3,277 6.8 -7.5°
